shenyang , China , ASIA

  • Sunday
    August 25

      Cloudy

      68 °F

      South

      3~4L 

  • Monday
    August 26

    Cloudy  Thundershower

    84 °F  66 °F

    South  Southwest

    4~5L   3~4L 

  • Tuesday
    August 27

    Cloudy  Cloudy

    82 °F  64 °F

    Southwest  Southwest

        

  • Wednesday
    August 28

    Thundershower  Thundershower

    79 °F  61 °F

    Southwest  Northwest

    3~4L    

  • Thursday
    August 29

    Cloudy  Cloudy

    73 °F  63 °F

    Northwest  Northwest

    3~4L    

  • Friday
    August 30

    Cloudy  Sunny

    75 °F  59 °F

    North  North

    3~4L    

  • Saturday
    August 31

    Sunny  Sunny

    79 °F  59 °F

    Northeast  Northeast

    3~4L    

Date   Weather Temperature Humidity Total_rain Visibility Wind
23:00 Cloudy 69°F 90.9% 0mm 999.9km Southwest  1.1m/s
02:00 Cloudy 69°F 92.9% 0mm 999.9km Southwest  1.1m/s
05:00 Cloudy 68°F 92.8% 0mm 999.9km Southwest  1.2m/s
08:00 Cloudy 76°F 85.7% 0mm 999.9km Southwest  2.5m/s
11:00 Cloudy 82°F 71.5% 0mm 999.9km Southwest  4.0m/s
14:00 Cloudy 84°F 69.8% 0mm 999.9km Southwest  3.9m/s
17:00 Cloudy 83°F 73.6% 0mm 999.9km Southwest  3.1m/s
20:00 Cloudy 73°F 64.3% 0mm 999.9km Southwest  2.4m/s
23:00 Thundershower 71°F 91.8% 1.2mm 999.9km Southwest  1.6m/s
02:00 Thundershower 67°F 92.5% 0.7mm 999.9km Southwest  1.8m/s
05:00 Thundershower 69°F 95.1% 1.3mm 999.9km Southwest  1.6m/s
08:00 Thundershower 72°F 91.3% 2.7mm 999.9km Southwest  1.0m/s
11:00 Cloudy 78°F 77.6% 0mm 999.9km Northwest  1.9m/s
14:00 Cloudy 82°F 71% 0mm 999.9km Southwest  1.4m/s
17:00 Cloudy 80°F 73.3% 0mm 999.9km Northwest  1.6m/s
20:00 Cloudy 68°F 64.5% 0mm 999.9km Northwest  0.8m/s
23:00 Cloudy 70°F 88.5% 0mm 999.9km Southwest  1.1m/s
02:00 Cloudy 66°F 92.1% 0mm 999.9km Southwest  1.2m/s
05:00 Cloudy 65°F 92.6% 0mm 999.9km Southwest  1.1m/s
08:00 Cloudy 74°F 87.1% 0mm 999.9km Southwest  1.2m/s
11:00 Thundershower 78°F 77.4% 1.1mm 999.9km Southwest  2.6m/s
14:00 Thundershower 78°F 76.9% 0.9mm 999.9km Southwest  3.1m/s
17:00 Thundershower 75°F 80.9% 1mm 999.9km Southwest  2.3m/s
20:00 Thundershower 67°F 71.1% 0.4mm 999.9km Southwest  1.8m/s
23:00 Thundershower 65°F 92.8% 0.1mm 999.9km Southwest  1.2m/s
02:00 Thundershower 62°F 95.3% 1.3mm 999.9km Southwest  0.9m/s
05:00 Thundershower 61°F 96.4% 1.5mm 999.9km Northwest  1.1m/s
08:00 Thundershower 64°F 94.6% 0.1mm 999.9km Northwest  1.3m/s
11:00 Cloudy 72°F 89.3% 0mm 999.9km Northwest  2.9m/s
14:00 Cloudy 73°F 88.2% 0mm 999.9km Northwest  2.7m/s
17:00 Cloudy 72°F 86.6% 0mm 999.9km Northwest  1.9m/s
20:00 Cloudy 66°F 81% 0mm 999.9km Northwest  0.9m/s
23:00 Cloudy 65°F 94.2% 0mm 999.9km Northwest  0.7m/s
02:00 Cloudy 63°F 96.2% 0mm 999.9km Northwest  1.0m/s
05:00 Cloudy 65°F 95.8% 0mm 999.9km Northwest  0.8m/s
08:00 Cloudy 68°F 94.1% 0mm 999.9km Northwest  1.4m/s
11:00 Cloudy 71°F 89% 0mm 999.9km Northeast  2.2m/s
14:00 Cloudy 75°F 86.8% 0mm 999.9km Northwest  2.9m/s
17:00 Cloudy 74°F 87.4% 0mm 999.9km Northeast  2.1m/s
20:00 Cloudy 68°F 80.1% 0mm 999.9km Northwest  0.5m/s
23:00 Sunny 62°F 92.5% 0mm 999.9km Northwest  0.8m/s
02:00 Sunny 60°F 88.3% 0mm 999.9km Southwest  0.2m/s
05:00 Sunny 59°F 86.7% 0mm 999.9km Northwest  0.8m/s
08:00 Sunny 67°F 85% 0mm 999.9km Southwest  1.6m/s
11:00 Sunny 75°F 72.5% 0mm 999.9km Northeast  2.9m/s
14:00 Sunny 78°F 63.7% 0mm 999.9km Southwest  3.1m/s
17:00 Sunny 77°F 62.1% 0mm 999.9km Northeast  2.3m/s
20:00 Sunny 69°F 60.4% 0mm 999.9km Southeast  0.8m/s
23:00 Sunny 65°F 89.2% 0mm 999.9km Northeast  0.5m/s
02:00 Sunny 59°F 87.5% 0mm 999.9km Southeast  0.8m/s
05:00 Sunny 59°F 84% 0mm 999.9km Northeast  0.8m/s